#timestamp,LO_Frequency,Hit 
1499072415.2,286046997.8,N
1499072435.0,286046997.8,N
1499072435.9,286046997.8,N
1499072455.8,286046997.2,N
1499072475.6,286046997.1,N
1499072495.4,286046997.0,N
1499072515.3,286046996.6,N
1499072535.1,286046997.7,N
1499072555.9,286046997.1,N
1499072575.7,286046997.9,N
1499072595.5,286046997.6,N
1499072615.4,286046999.6,N
1499072635.2,286046997.4,N
1499072655.0,286046997.1,N
1499072656.0,286046997.1,N
1499072675.8,286046996.7,N
1499072695.6,286046996.7,N
1499072715.5,286046999.4,N
1499072735.3,286046998.8,N
1499072755.1,286046999.4,N
1499072775.9,286046997.2,N
1499072795.7,286046995.3,N
1499072815.6,286046997.0,N
1499072835.4,286046996.9,N
1499072855.2,286046999.3,N
1499072875.1,286046998.4,N
1499072876.0,286046998.4,N
1499072895.8,286046999.4,N
1499072915.6,286046999.4,N
1499072935.5,286046999.3,N
1499072955.3,286046999.1,N
1499072975.2,286046997.1,N
1499072995.9,286046997.3,N
1499073015.7,286046999.1,N
1499073035.6,286046996.9,N
1499073055.4,286046996.7,N
1499073075.2,286046999.6,N
1499073095.1,286046999.4,N
1499073096.0,286046999.4,N
1499073115.8,286047000.3,N
1499073135.7,286046999.8,N
1499073155.5,286047002.3,N
1499073175.3,286047001.0,N
1499073195.2,286047000.8,N
1499073215.0,286047002.1,N
1499073215.9,286047002.1,N
1499073235.8,286047004.0,N
1499073255.6,286047002.8,N
1499073275.4,286047002.4,N
1499073295.3,286047000.2,N
1499073315.1,286047003.8,N
1499073335.8,286047001.6,N
1499073355.7,286046999.7,N
1499073375.5,286047003.8,N
1499073395.3,286047003.5,N
1499073415.2,286047004.3,N
1499073435.0,286047003.5,N
1499073435.9,286047003.5,N
1499073455.8,286047003.6,N
1499073475.6,286047005.3,N
1499073495.4,286047001.8,N
1499073515.3,286047001.1,N
1499073535.1,286047000.4,N
1499073555.9,286047001.4,N
1499073575.7,286047003.1,N
1499073595.5,286047005.7,N
1499073615.4,286047005.4,N
1499073635.2,286047005.5,N
1499073655.0,286047003.5,N
1499073655.9,286047003.5,N
1499073675.8,286047003.0,N
1499073695.6,286047003.0,N
1499073715.5,286047003.6,N
1499073735.3,286047002.3,N
1499073755.1,286047002.7,N
1499073775.9,286047003.1,N
1499073795.7,286047006.0,N
1499073815.5,286047005.2,N
1499073835.4,286047003.7,N
1499073855.2,286047005.8,N
1499073875.0,286047005.0,N
1499073875.9,286047005.0,N
1499073895.8,286047004.3,N
1499073915.6,286047003.1,N
1499073935.5,286047001.5,N
1499073955.3,286047002.8,N
1499073975.1,286047001.9,N
1499073995.9,286047002.1,N
1499074015.7,286047001.8,N
1499074035.6,286047001.7,N
1499074055.4,286047003.7,N
1499074075.2,286047002.5,N
1499074095.1,286047001.4,N
1499074096.0,286047001.4,N
1499074115.8,286047005.6,N
1499074135.6,286047005.1,N
1499074155.5,286047003.4,N
1499074175.3,286047001.7,N
1499074195.1,286047001.4,N
1499074215.9,286047004.1,N
1499074235.7,286047004.2,N
1499074255.6,286047001.8,N
1499074275.4,286047001.5,N
1499074295.2,286047002.5,N
1499074315.1,286047001.9,N
1499074316.0,286047001.9,N
1499074335.8,286047002.6,N
1499074355.7,286047003.6,N
1499074375.5,286047001.3,N
1499074395.3,286047002.2,N
1499074415.2,286047003.5,N
1499074435.9,286047003.3,N
1499074455.7,286047003.5,N
1499074475.6,286047003.8,N
1499074495.4,286047004.2,N
1499074515.2,286047004.2,N
1499074535.1,286047003.4,N
1499074536.0,286047003.4,N
1499074555.8,286047004.2,N
1499074575.7,286047003.1,N
1499074595.5,286047003.9,N
1499074615.3,286047004.1,N
1499074635.2,286047004.0,N
1499074655.0,286047005.2,Y
1499074655.9,286047005.2,Y
1499074675.8,286046998.9,N
1499074695.6,286046998.2,N
1499074715.4,286046996.8,N
1499074735.3,286046998.1,N
1499074755.1,286046999.6,N
1499074775.8,286046997.3,N
1499074795.7,286046997.1,N
1499074815.5,286047001.0,N
1499074835.4,286047000.5,N
1499074855.2,286047000.5,N
1499074875.0,286046998.2,N
1499074875.9,286046998.2,N
1499074895.8,286046998.9,N
1499074915.6,286046998.7,N
1499074935.4,286047001.0,N
1499074955.3,286046999.0,N
1499074975.1,286046996.8,N
1499074995.9,286046998.8,N
1499075015.7,286046997.1,N
1499075035.5,286046997.6,N
1499075055.4,286046997.8,N
1499075075.2,286046996.8,N
1499075095.1,286046997.6,N
1499075096.0,286046997.6,N
1499075115.8,286046998.5,N
1499075135.6,286047001.0,N
1499075155.5,286046999.5,N
1499075175.3,286046997.3,N
1499075195.1,286046998.0,N
1499075215.9,286046995.2,N
1499075235.7,286046997.2,N
1499075255.6,286046998.0,N
1499075275.4,286046997.8,N
1499075295.2,286046998.1,N
1499075315.1,286046999.9,N
1499075316.0,286046999.9,N
1499075335.1,286047000.3,N
1499075355.9,286046998.1,N
1499075375.7,286047000.6,N
1499075395.6,286047000.0,N
1499075415.4,286047000.6,N
1499075435.2,286046999.4,N
1499075455.1,286046998.8,N
1499075456.0,286046998.8,N
1499075475.8,286046998.5,N
1499075495.6,286047000.0,N
1499075515.5,286047002.8,N
1499075535.3,286047001.8,N
1499075555.2,286047003.9,N
1499075575.9,286047001.7,N
1499075595.7,286047002.8,N
1499075615.6,286047002.2,N
1499075635.4,286047002.7,N
1499075655.2,286046999.8,N
1499075675.1,286047000.5,N
1499075676.0,286047000.5,N
1499075695.8,286046999.8,N
1499075715.7,286047001.0,N
1499075735.5,286046998.4,N
1499075755.3,286047000.8,N
1499075775.2,286046999.9,N
1499075795.0,286047000.2,N
1499075795.9,286047000.2,N
1499075815.8,286047000.5,N
1499075835.6,286047000.3,N
1499075855.4,286047001.8,N
1499075875.3,286047000.1,N
1499075895.1,286047002.5,N
1499075915.8,286047001.5,N
1499075935.7,286047001.5,N
1499075955.5,286046999.9,N
1499075975.4,286047001.1,N
1499075995.2,286047000.8,N
